Weather

DAILY 7 DAY TOTAL
onrain

Note: Some stations are located near irrigated fields and may also report irrigation

Alliston Mount Forest Blyth Guelph Grand Bend Strathroy Woodstock Belmont Simcoe Leamington Chatham West Lorne






Chatham WIN - Historical Weather Data
Date Max Temp (°C) Min Temp (°C) Avg Temp (°C) Rain (mm) 7Day Rain(mm) Total Rain(mm) Avg RH (%)
5/22/2019 19.3 9.7 13.2 1.8 5.8 74.8 84.4
5/21/2019 17.7 3.5 11.4 0.0 4.6 73.0 74.4
5/20/2019 16.9 7.4 13.3 0.0 4.6 73.0 86.3
5/19/2019 26.3 11.4 17.9 3.0 10.0 73.0 90.1
5/18/2019 18.8 8.2 12.7 1.0 15.2 70.0 85.7
5/17/2019 18.3 9.5 13.6 0.0 14.2 69.0 79.5
5/16/2019 22.8 7.4 15.5 0.0 18.8 69.0 77.1
5/15/2019 22.1 10.3 14.9 0.6 33.6 69.0 70.0
5/14/2019 18.8 5.1 11.7 0.0 33.0 68.4 74.6
5/13/2019 9.1 6.5 7.7 5.4 36.4 68.4 94.3
5/12/2019 13.3 7.1 9.2 8.2 31.2 63.0 88.4
5/11/2019 12.3 4.3 8.5 0.0 23.0 54.8 76.4
5/10/2019 16.7 6.7 12.2 4.6 23.0 54.8 82.4
5/9/2019 21.1 9.2 15.3 14.8 25.2 50.2 88.3
5/8/2019 14.8 5.3 9.9 0.0 14.4 35.4 69.2
5/7/2019 8.7 4.5 6.6 3.4 35.4 35.4 91.7
5/6/2019 23.7 7.9 14.3 0.2 38.8 32.0 79.0
5/5/2019 18.6 5.5 11.8 0.0 43.4 31.8 88.1
5/4/2019 13.7 5.5 9.0 0.0 49.4 31.8 89.9
5/3/2019 11.5 5.8 7.9 6.8 51.4 31.8 99.8
5/2/2019 17.7 6.5 11.5 4.0 68.4 25.0 96.7
5/1/2019 21.3 7.3 13.0 21.0 67.6 21.0 96.2